When you browse on this site, cookies collect data to enhance your experience and personalize the content and advertising you see.
Visit our Privacy Policy to learn more. By continuing to use the site, you agree to this use of cookies and data.
  • In Slovakia
  • List of Countries
  • For 7 days
  • Water Temperature
  • Satellite Maps
  • Weather Map
  • Weather Widgets
  • user-avatar
    Login

    Hourly Weather Boa Vista

    Today, 11 December, Tuesday

    Time Temperature Precipitation Wind Pressure Humidity
    00:00 +28°C° 0.1 mm 3 mps 754 mmHg 70%
    01:00 +28°C° 0.1 mm 3 mps 754 mmHg 70%
    02:00 +28°C° 0.1 mm 3 mps 754 mmHg 71%
    03:00 +27°C° 0 mm 3 mps 754 mmHg 70%
    04:00 +27°C° 0 mm 3 mps 754 mmHg 69%
    05:00 +26°C° 0 mm 4 mps 754 mmHg 69%
    06:00 +27°C° 0 mm 4 mps 755 mmHg 66%
    07:00 +28°C° 0 mm 4 mps 755 mmHg 64%
    08:00 +29°C° 0 mm 5 mps 756 mmHg 62%
    09:00 +32°C° 0 mm 5 mps 756 mmHg 56%
    10:00 +33°C° 0 mm 5 mps 756 mmHg 51%
    11:00 +35°C° 0 mm 5 mps 756 mmHg 46%
    12:00 +36°C° 0 mm 4 mps 754 mmHg 45%
    13:00 +36°C° 0 mm 4 mps 753 mmHg 45%
    14:00 +36°C° 0 mm 4 mps 752 mmHg 44%
    15:00 +36°C° 0 mm 4 mps 752 mmHg 46%
    16:00 +36°C° 0 mm 3 mps 751 mmHg 48%
    17:00 +35°C° 0 mm 3 mps 751 mmHg 50%
    18:00 +34°C° 0 mm 3 mps 752 mmHg 54%
    19:00 +33°C° 0 mm 3 mps 752 mmHg 58%
    20:00 +31°C° 0 mm 3 mps 753 mmHg 62%
    21:00 +30°C° 0.3 mm 4 mps 753 mmHg 65%
    22:00 +29°C° 0.3 mm 4 mps 754 mmHg 68%
    23:00 +29°C° 0.3 mm 4 mps 754 mmHg 71%

    Tomorrow, 12 December, Wednesday

    Time Temperature Precipitation Wind Pressure Humidity
    00:00 +28°C° 0.5 mm 4 mps 754 mmHg 74%
    01:00 +28°C° 0.5 mm 4 mps 754 mmHg 77%
    02:00 +27°C° 0.5 mm 3 mps 753 mmHg 80%
    03:00 +27°C° 0.3 mm 3 mps 753 mmHg 81%
    04:00 +27°C° 0.3 mm 3 mps 753 mmHg 82%
    05:00 +26°C° 0.3 mm 3 mps 754 mmHg 83%
    06:00 +27°C° 0 mm 4 mps 754 mmHg 80%
    07:00 +28°C° 0 mm 4 mps 755 mmHg 76%
    08:00 +29°C° 0 mm 5 mps 755 mmHg 73%
    09:00 +30°C° 0.2 mm 5 mps 755 mmHg 68%
    10:00 +32°C° 0.2 mm 5 mps 755 mmHg 63%
    11:00 +34°C° 0.2 mm 5 mps 755 mmHg 58%
    12:00 +34°C° 0.4 mm 4 mps 754 mmHg 57%
    13:00 +34°C° 0.4 mm 4 mps 753 mmHg 57%
    14:00 +35°C° 0.4 mm 4 mps 751 mmHg 57%
    15:00 +35°C° 0.2 mm 3 mps 751 mmHg 58%
    16:00 +34°C° 0.2 mm 3 mps 751 mmHg 59%
    17:00 +34°C° 0.2 mm 2 mps 750 mmHg 61%
    18:00 +32°C° 0 mm 2 mps 751 mmHg 64%
    19:00 +31°C° 0 mm 3 mps 751 mmHg 67%
    20:00 +30°C° 0 mm 3 mps 752 mmHg 70%
    21:00 +29°C° 0.1 mm 3 mps 753 mmHg 71%
    22:00 +29°C° 0.1 mm 3 mps 753 mmHg 72%
    23:00 +28°C° 0.1 mm 3 mps 754 mmHg 74%

    Day after tomorrow, 13 December, Thursday

    Time Temperature Precipitation Wind Pressure Humidity
    00:00 +28°C° 0 mm 3 mps 753 mmHg 75%
    01:00 +27°C° 0 mm 3 mps 753 mmHg 76%
    02:00 +27°C° 0 mm 3 mps 753 mmHg 77%
    03:00 +27°C° 0 mm 3 mps 753 mmHg 78%
    04:00 +27°C° 0 mm 3 mps 753 mmHg 79%
    05:00 +27°C° 0 mm 3 mps 753 mmHg 80%
    06:00 +27°C° 0 mm 3 mps 753 mmHg 76%
    07:00 +28°C° 0 mm 4 mps 754 mmHg 71%
    08:00 +29°C° 0 mm 5 mps 755 mmHg 67%
    09:00 +30°C° 0.2 mm 5 mps 755 mmHg 65%
    10:00 +32°C° 0.2 mm 5 mps 754 mmHg 62%
    11:00 +34°C° 0.2 mm 4 mps 754 mmHg 60%
    12:00 +34°C° 0.7 mm 4 mps 753 mmHg 60%
    13:00 +34°C° 0.7 mm 4 mps 752 mmHg 61%
    14:00 +34°C° 0.7 mm 3 mps 751 mmHg 61%
    15:00 +34°C° 0.4 mm 3 mps 751 mmHg 63%
    16:00 +33°C° 0.4 mm 3 mps 751 mmHg 64%
    17:00 +32°C° 0.4 mm 2 mps 750 mmHg 65%
    18:00 +31°C° 0 mm 2 mps 751 mmHg 70%
    19:00 +30°C° 0 mm 2 mps 751 mmHg 74%
    20:00 +28°C° 0 mm 2 mps 752 mmHg 78%
    21:00 +28°C° 0 mm 3 mps 752 mmHg 77%
    22:00 +28°C° 0 mm 3 mps 753 mmHg 76%
    23:00 +28°C° 0 mm 3 mps 753 mmHg 76%

    14 December, Friday

    Time Temperature Precipitation Wind Pressure Humidity
    00:00 +28°C° 0 mm 3 mps 753 mmHg 75%
    01:00 +27°C° 0 mm 4 mps 753 mmHg 74%
    02:00 +27°C° 0 mm 4 mps 752 mmHg 73%
    03:00 +27°C° 0 mm 4 mps 752 mmHg 73%
    04:00 +26°C° 0 mm 4 mps 753 mmHg 73%
    05:00 +26°C° 0 mm 4 mps 753 mmHg 73%
    06:00 +27°C° 0 mm 4 mps 754 mmHg 70%
    07:00 +28°C° 0 mm 5 mps 754 mmHg 66%
    08:00 +28°C° 0 mm 6 mps 755 mmHg 62%
    09:00 +30°C° 0 mm 6 mps 755 mmHg 57%
    10:00 +33°C° 0 mm 5 mps 755 mmHg 51%
    11:00 +34°C° 0 mm 5 mps 755 mmHg 46%
    12:00 +35°C° 0 mm 5 mps 754 mmHg 43%
    13:00 +36°C° 0 mm 5 mps 753 mmHg 41%
    14:00 +36°C° 0 mm 4 mps 752 mmHg 39%
    15:00 +36°C° 0 mm 4 mps 751 mmHg 41%
    16:00 +36°C° 0 mm 4 mps 751 mmHg 42%
    17:00 +35°C° 0 mm 3 mps 751 mmHg 44%
    18:00 +34°C° 0 mm 3 mps 752 mmHg 48%
    19:00 +31°C° 0 mm 3 mps 752 mmHg 52%
    20:00 +30°C° 0 mm 3 mps 753 mmHg 57%
    21:00 +29°C° 0 mm 4 mps 753 mmHg 59%
    22:00 +29°C° 0 mm 4 mps 754 mmHg 61%
    23:00 +28°C° 0 mm 4 mps 754 mmHg 64%

    15 December, Saturday

    Time Temperature Precipitation Wind Pressure Humidity
    00:00 +28°C° 0 mm 4 mps 754 mmHg 65%
    01:00 +27°C° 0 mm 4 mps 754 mmHg 66%
    02:00 +27°C° 0 mm 4 mps 753 mmHg 67%
    03:00 +27°C° 0 mm 4 mps 753 mmHg 69%
    04:00 +26°C° 0 mm 4 mps 754 mmHg 70%
    05:00 +26°C° 0 mm 4 mps 754 mmHg 71%
    06:00 +27°C° 0 mm 4 mps 754 mmHg 69%
    07:00 +28°C° 0 mm 5 mps 755 mmHg 66%
    08:00 +28°C° 0 mm 5 mps 756 mmHg 63%
    09:00 +30°C° 0 mm 5 mps 755 mmHg 56%
    10:00 +33°C° 0 mm 5 mps 755 mmHg 49%
    11:00 +34°C° 0 mm 5 mps 755 mmHg 42%
    12:00 +35°C° 0 mm 5 mps 754 mmHg 39%
    13:00 +36°C° 0 mm 4 mps 753 mmHg 36%
    14:00 +37°C° 0 mm 4 mps 752 mmHg 33%
    15:00 +36°C° 0 mm 4 mps 752 mmHg 35%
    16:00 +36°C° 0 mm 3 mps 752 mmHg 37%
    17:00 +35°C° 0 mm 3 mps 751 mmHg 40%
    18:00 +34°C° 0 mm 3 mps 752 mmHg 44%
    19:00 +33°C° 0 mm 4 mps 753 mmHg 48%
    20:00 +30°C° 0 mm 4 mps 753 mmHg 52%
    21:00 +30°C° 0 mm 4 mps 754 mmHg 55%
    22:00 +29°C° 0 mm 4 mps 754 mmHg 57%
    23:00 +29°C° 0 mm 4 mps 754 mmHg 60%

    16 December, Sunday

    Time Temperature Precipitation Wind Pressure Humidity
    00:00 +28°C° 0 mm 4 mps 754 mmHg 61%
    01:00 +28°C° 0 mm 4 mps 754 mmHg 63%
    02:00 +27°C° 0 mm 3 mps 754 mmHg 65%
    03:00 +27°C° 0 mm 3 mps 754 mmHg 67%
    04:00 +26°C° 0 mm 3 mps 754 mmHg 68%
    05:00 +26°C° 0 mm 3 mps 754 mmHg 69%
    06:00 +27°C° 0 mm 3 mps 755 mmHg 66%
    07:00 +28°C° 0 mm 4 mps 755 mmHg 63%
    08:00 +28°C° 0 mm 4 mps 756 mmHg 60%
    09:00 +30°C° 0 mm 4 mps 756 mmHg 54%
    10:00 +33°C° 0 mm 4 mps 756 mmHg 49%
    11:00 +34°C° 0 mm 4 mps 755 mmHg 43%
    12:00 +35°C° 0 mm 4 mps 754 mmHg 40%
    13:00 +36°C° 0 mm 4 mps 753 mmHg 37%
    14:00 +37°C° 0 mm 3 mps 752 mmHg 35%
    15:00 +37°C° 0 mm 3 mps 752 mmHg 36%
    16:00 +36°C° 0 mm 3 mps 752 mmHg 37%
    17:00 +36°C° 0 mm 3 mps 751 mmHg 39%
    18:00 +35°C° 0 mm 3 mps 752 mmHg 43%
    19:00 +33°C° 0 mm 3 mps 752 mmHg 47%
    20:00 +30°C° 0 mm 3 mps 752 mmHg 51%
    21:00 +30°C° 0 mm 3 mps 753 mmHg 53%
    22:00 +30°C° 0 mm 4 mps 753 mmHg 56%
    23:00 +29°C° 0 mm 4 mps 753 mmHg 58%
    Show more